World > North America > United States > Ohio

Deunquat, Ohio Regional Weather

Lat: 40.93N, Lon: 83.13W
Wx Zone: OHZ027
Feedback

Deunquat, OH Regional Weather

Expires:201907211200;;401435
ASUS41 KCLE 211112
RWRCLE
OHIO REGIONAL WEATHER ROUNDUP
NATIONAL WEATHER SERVICE WILMINGTON, OH
700 AM EDT SUN JUL 21 2019

NOTE: "FAIR" INDICATES FEW OR NO CLOUDS BELOW 12,000 FEET WITH NO
SIGNIFICANT WEATHER AND/OR OBSTRUCTIONS TO VISIBILITY.


OHZ001>008-015>018-024>027-034-035-043-044-211200-
   NORTHWEST OHIO
  
CITY           SKY/WX    TMP DP  RH WIND       PRES   REMARKS
DEFIANCE       MOCLDY    76  72  87 CALM      29.93R                  
FINDLAY        FAIR      79  74  84 N8        29.92R                  
TOLEDO EXPRESS CLOUDY    75  69  81 NE6       29.94R                  
TOLEDO EXEC    CLOUDY    75  71  87 N3        29.95R                  
LIMA           FAIR      77  74  90 SW7       29.94S                  
$$
 

SKY/WX - Weather  TMP - Temperature  DP - Dew Point  RH - Relative Humidity
WIND - Wind Direction/Speed PRES - Barometric Pressure VSB - Visibility
WCI - Wind Chill Index E13G22 Wind - East Wind 13 mph/Gusts of 22 mph